This is the latest recevied weather packets stored in our database for station/object K7NDG. If no packets are shown the sender has not sent any weather packets the latest 1 day(s).
| Time | Temp. | Humidity | Pressure | Rain* | Wind** | Luminosity | Snow |
|---|---|---|---|---|---|---|---|
| 1778081271 | 12.22° C | 80% | 1021 hPa | 0 mm | - | 37 W/m² | - |
| 1778080060 | 11.67° C | 81% | 1020.9 hPa | 0 mm | - | 37 W/m² | - |
| 1778078848 | 11.67° C | 81% | 1020.5 hPa | 0 mm | - | 31 W/m² | - |
| 1778078545 | 11.67° C | 82% | 1020.9 hPa | 0 mm | - | 31 W/m² | - |
| 1778077940 | 11.67° C | 82% | 1020.6 hPa | 0 mm | - | 23 W/m² | - |
| 1778077336 | 11.67° C | 83% | 1020.7 hPa | 0 mm | - | 18 W/m² | - |
| 1778077034 | 11.67° C | 83% | 1020.6 hPa | 0 mm | - | 16 W/m² | - |
| 1778076732 | 11.67° C | 84% | 1020.7 hPa | 0 mm | - | 18 W/m² | - |
| 1778075823 | 11.67° C | 85% | 1020.2 hPa | 0 mm | - | 11 W/m² | - |
| 1778075216 | 11.67° C | 86% | 1020.3 hPa | 0 mm | - | 7 W/m² | - |
| 1778074912 | 11.67° C | 86% | 1020.2 hPa | 0 mm | - | 6 W/m² | - |
| 1778074306 | 11.11° C | 86% | 1020 hPa | 0 mm | - | 4 W/m² | - |
| 1778073700 | 11.11° C | 86% | 1020.2 hPa | 0 mm | - | 1 W/m² | - |
| 1778073398 | 11.11° C | 86% | 1020.1 hPa | 0 mm | - | 0 W/m² | - |
| 1778072488 | 11.11° C | 87% | 1019.8 hPa | 0 mm | - | 0 W/m² | - |
| 1778071279 | 11.11° C | 87% | 1019.8 hPa | 0 mm | - | 0 W/m² | - |
| 1778069161 | 11.11° C | 87% | 1019.6 hPa | 0 mm | - | 0 W/m² | - |
| 1778068858 | 11.11° C | 87% | 1019.6 hPa | 0 mm | - | 0 W/m² | - |
| 1778068556 | 11.11° C | 87% | 1019.9 hPa | 0 mm | - | 0 W/m² | - |
| 1778067951 | 11.67° C | 87% | 1019.5 hPa | 0 mm | - | 0 W/m² | - |
| 1778067347 | 11.67° C | 86% | 1019.6 hPa | 0 mm | - | 0 W/m² | - |
| 1778067044 | 11.67° C | 86% | 1019.7 hPa | 0 mm | - | 0 W/m² | - |
| 1778066741 | 11.67° C | 86% | 1019.7 hPa | 0 mm | - | 0 W/m² | - |
| 1778066438 | 11.67° C | 86% | 1019.6 hPa | 0 mm | - | 0 W/m² | - |
| 1778064923 | 11.67° C | 85% | 1019.5 hPa | 0 mm | - | 0 W/m² | - |
* Rain latest hour (hover to see other rain measurements)
** Current wind speed in m/s (hover to see current wind gust speed)